Torrington, WY

12:23 PM MDT on July 22, 2017 (GMT -0600)
Torrington Municipal

Weather History for KTOR - August, 2014

Change the Weather History Date:

Friday, August 29, 2014

  Actual Average Record
Temperature  
Mean Temperature 65 °F 68 °F  
Max Temperature 81 °F 85 °F 100 °F (2012)
Min Temperature 49 °F 52 °F 42 °F (2004)
Degree Days  
Heating Degree Days 0 1  
Month to date heating degree days 7 8  
Since 1 June heating degree days 92 89  
Since 1 July heating degree days 14 14  
Cooling Degree Days 0 4  
Month to date cooling degree days 194 208  
Year to date cooling degree days 530 624  
Since 1 June cooling degree days 514 606  
Growing Degree Days 16 (Base 50)    
Moisture  
Dew Point 51 °F    
Average Humidity 65    
Maximum Humidity 96    
Minimum Humidity 33    
Precipitation  
Precipitation T in 0.03 in 0.12 in (2002)
Month to date precipitation 2.56 1.20  
Year to date precipitation 14.02 10.89  
Sea Level Pressure  
Sea Level Pressure 29.92 in    
Wind  
Wind Speed 8 mph (North)    
Max Wind Speed 21 mph    
Max Gust Speed 26 mph    
Visibility 10 miles    
Events      
T = Trace of Precipitation, MM = Missing Value Source: NWS Daily Summary

Daily Weather History Graph

Daily Weather History Graph

Search for Another Location

Airport or City:

Trip Planner

Search our weather history database for the weather conditions in past years. The results will help you decide how hot, cold, wet, or windy it might be!

Date:

Astronomy

Aug. 29, 2014 Rise Set
Actual Time 6:19 AM MDT 7:35 PM MDT
Civil Twilight 5:50 AM MDT 8:04 PM MDT
Nautical Twilight 5:15 AM MDT 8:38 PM MDT
Astronomical Twilight 4:38 AM MDT 9:15 PM MDT
Moon 10:15 AM MDT (8/29) 9:29 PM MDT (8/29)
Length of Visible Light 14h 13m
Length of Day
13h 16m
Waxing Crescent, 15% of the Moon is Illuminated
Aug 29
Waxing Crescent
Sep 2
First Quarter
Sep 8
Full
Sep 15
Last Quarter
Sep 24
New

Hourly Weather History & Observations

Time (MDT) Temp. Dew Point Humidity Pressure Visibility Wind Dir Wind Speed Gust Speed Precip Events Conditions
12:53 AM 53.1 °F 50.0 °F 89% 29.94 in 10.0 mi ESE 6.9 mph - N/A   Clear
1:53 AM 51.1 °F 50.0 °F 96% 29.91 in 10.0 mi Calm Calm - N/A   Clear
2:53 AM 52.0 °F 48.9 °F 89% 29.91 in 10.0 mi NNW 3.5 mph - N/A   Clear
3:53 AM 51.1 °F 48.9 °F 92% 29.91 in 10.0 mi Calm Calm - N/A   Clear
4:53 AM 50.0 °F 48.0 °F 93% 29.90 in 10.0 mi Calm Calm - N/A   Clear
5:53 AM 50.0 °F 48.9 °F 96% 29.91 in 10.0 mi West 3.5 mph - N/A   Clear
6:53 AM 50.0 °F 48.9 °F 96% 29.93 in 10.0 mi WNW 5.8 mph - N/A   Clear
7:53 AM 54.0 °F 51.1 °F 90% 29.95 in 10.0 mi North - - N/A   Scattered Clouds
9:53 AM 66.0 °F 53.1 °F 63% 29.95 in 10.0 mi NW 19.6 mph 25.3 mph N/A   Partly Cloudy
10:53 AM 73.0 °F 51.1 °F 46% 29.92 in 10.0 mi North 11.5 mph - N/A   Partly Cloudy
11:53 AM 73.0 °F 53.1 °F 49% 29.94 in 10.0 mi NW 9.2 mph - 0.00 in   Mostly Cloudy
12:53 PM 77.0 °F 52.0 °F 42% 29.94 in 10.0 mi Variable 6.9 mph - N/A   Clear
1:53 PM 79.0 °F 51.1 °F 38% 29.92 in 10.0 mi NW 5.8 mph - N/A   Partly Cloudy
2:53 PM 81.0 °F 50.0 °F 34% 29.90 in 10.0 mi NNW 9.2 mph - N/A   Scattered Clouds
3:53 PM 81.0 °F 48.9 °F 33% 29.88 in 10.0 mi NNW 12.7 mph 16.1 mph N/A   Scattered Clouds
4:53 PM 80.1 °F 48.0 °F 32% 29.90 in 10.0 mi NNE 9.2 mph 17.3 mph N/A   Clear
5:53 PM 79.0 °F 48.9 °F 35% 29.89 in 10.0 mi North 9.2 mph - N/A   Clear
6:53 PM 73.9 °F 48.0 °F 40% 29.91 in 10.0 mi NNE 9.2 mph - N/A   Clear
7:53 PM 64.9 °F 51.1 °F 61% 29.93 in 10.0 mi ENE 6.9 mph - N/A   Clear
8:53 PM 64.9 °F 52.0 °F 63% 29.94 in 10.0 mi ESE 10.4 mph - N/A   Clear
9:53 PM 62.1 °F 55.9 °F 80% 29.97 in 10.0 mi East 10.4 mph - N/A   Mostly Cloudy
10:53 PM 62.1 °F 55.9 °F 80% 29.94 in 10.0 mi ESE 10.4 mph - N/A   Clear
11:53 PM 59.0 °F 55.0 °F 87% 29.94 in 10.0 mi East 10.4 mph - N/A   Clear